Location: St. Louis
(38.6270°N, 90.1994°W)
Time: 04:30:45
(UTC-06:00)

Explorer 7 - Pass Details

Date: 08 December 2021
Orbit: 483 x 674 km, 50.3° (Epoch: 19 January)

Event Time Altitude Azimuth Distance (km) Brightness Sun altitude
Exits shadow 05:56:40 17° 320° (NW) 1,500 8.5 -13.3°
Maximum altitude 05:58:07 19° 346° (NNW) 1,357 8.5 -13.0°
Drops below altitude 10° 06:01:10 10° 34° (NE) 1,815 9.6 -12.4°
Sets 06:03:51 0° 52° (NE) 2,670 10.8 -11.9°
